PELICAN 3001

导读

PELICAN 3001是美国Planet公司Pelican低轨遥感卫星星座的一员,于2023年11月11日发射。作为新一代高分辨率遥感卫星,它运行于约475公里太阳同步轨道,单星重量120公斤,搭载自主研发推帚式光学载荷,全色分辨率可达0.3米,支持每日12次重访成像。 卫星率先搭载英伟达Jetson平台实现AI在轨计算,可大幅缩短数据交付周期,能为农业、林业、情报等领域提供高频次、高质量地球观测数据,是商业遥感卫星技术升级的代表性成果。

Basic Information
目录编号:
58296
目录名称:
PELICAN-1 3001
国际标识:
2023-174AS
轨道中心:
EARTH
卫星名称:
PELICAN 3001
卫星全名:
--
卫星状态:
在轨 (已飞行1029 天)
发射日期:
2023-11-11 UTC
国别 :
美国 (US)
星等 :
--
Orbit Information
数据来源 国际轨道数据
星历时间: 2026-09-01T14:10:02+0800
4天前
查看轨道信息
半长轴: 6736.686km
偏心率: 0.0001221
轨道倾角: 97.397°
近地点辐角 99.845°
升交点赤经 349.209°
平近点角 260.295°
近地点: 357.726km
远地点: 359.372km
周期: 91.713分钟
每日圈数: 15.701219
Detailed Information
使用方式:
暂无
2D Orbit Map
3D Orbit Map
Orbit Altitude Analysis Chart
Orbit Inclination Analysis Chart
Orbit Comprehensive Analysis Chart
View Comprehensive Chart
Conjunction Data List
Event ID Objects TCA Miss Dist (km) Collision Risk Probability Collision Risk Index (CRI) Action
CDM_260902-075605-829606-153321
2026-09-02T
07:56:29+0000
1.449 km
极远距离
6.382052E-6 低风险 0.51
CDM_260830-061205-829606-202021
2026-08-30T
06:12:35+0000
1.697 km
极远距离
3.659217E-6 低风险 0.46